Regional Weather Roundup
Issued by NWS

Home | Current Version | Previous Version | Text Only | Print | Product List | Glossary On
Versions: 1 2 3 4 5 6 7 8 9 10 11 12 13 14 15 16 17 18 19 20 21 22 23 24 25 26 27 28 29 30 31 32 33 34 35 36 37 38 39 40 41 42 43 44 45 46 47 48 49 50
000
ASUS44 KBMX 281510
RWRAL

ALABAMA REGIONAL WEATHER ROUNDUP
NATIONAL WEATHER SERVICE BIRMINGHAM AL
900 AM CST FRI NOV 28 2014

NOTE: "FAIR" INDICATES FEW OR NO CLOUDS BELOW 12,000 FEET
WITH NO SIGNIFICANT WEATHER AND/OR OBSTRUCTIONS TO VISIBILITY.

THE REMARK "TC" DENOTES TEMPERATURE IN DEGREES CELSIUS.

ALZ001>011-014-016>018-020-281600-
NORTH ALABAMA

CITY           SKY/WX    TMP DP  RH WIND       PRES   REMARKS
MUSCLE SHOALS  SUNNY     34  23  64 SE7       30.46R WCI  28
HUNTSVILLE     SUNNY     35  23  61 SE6       30.44F WCI  30
DECATUR        SUNNY     33  23  66 VRB3      30.45F
HALEYVILLE     FAIR      34  22  61 CALM      30.45R
GADSDEN        SUNNY     34  19  55 N5        30.47R WCI  30
$$

ALZ012-013-022-023-030>036-040>044-281600-
WEST CENTRAL ALABAMA

CITY           SKY/WX    TMP DP  RH WIND       PRES   REMARKS
TUSCALOOSA     SUNNY     39  26  59 NE6       30.47R WCI  35
$$

ALZ015-024>027-033>036-040>044-281600-
CENTRAL ALABAMA

CITY           SKY/WX    TMP DP  RH WIND       PRES   REMARKS
BIRMINGHAM     SUNNY     36  24  62 CALM      30.48S
MONTGOMERY     SUNNY     41  28  60 N7        30.46S
SHELBY CO ARPT SUNNY     38  19  46 NE8       30.45S WCI  32
MAXWELL AFB    SUNNY     40  27  58 N7        30.45F
GREENVILLE     FAIR      42  28  57 NE8       30.43S
$$

ALZ019-021-028-029-037-038-045>048-281600-
EAST CENTRAL ALABAMA

CITY           SKY/WX    TMP DP  RH WIND       PRES   REMARKS
ANNISTON       SUNNY     35  22  58 NE6       30.47R WCI  30
ALEXANDER CITY SUNNY     37  23  57 N7        30.44S WCI  31
AUBURN         SUNNY     36  25  64 NE9       30.45R WCI  29
$$

ALZ051>064-281600-
SOUTHWEST ALABAMA

CITY           SKY/WX    TMP DP  RH WIND       PRES   REMARKS
MOBILE         SUNNY     43  31  62 NE9       30.46R
BROOKLEY FIELD SUNNY     45  32  60 NE9       30.47R
EVERGREEN      SUNNY     42  30  62 NE10      30.46R
$$

ALZ049-050-065>069-281600-
SOUTHEAST ALABAMA

CITY           SKY/WX    TMP DP  RH WIND       PRES   REMARKS
DOTHAN         SUNNY     41  30  65 N8        30.46R
OZARK          SUNNY     41  28  59 NE8       30.43R
TROY           SUNNY     41  29  62 NE7       30.45R
EUFAULA        FAIR      41  26  55 VRB6      30.44R
$$


USA.gov is the U.S. government's official web portal to all federal, state and local government web resources and services.